SCP
0 0 0 0 0 0 0 0 0 0 0 0 0 0 0 0 0 0 0 0 0 0 0 0 0 0 0 0 0 1 1 0 0 1 1 1 1 1 1 1 1 1 1
0 0 0 0 0 0 0 0 0 0 0 0 0 0 0 0 0 0 0 0 0 0 0 0 0 0 0 -0 0 1 1 1 1 1 1 1 1 1 1 1 1 0 0
0 0 0 0 0 0 0 0 0 0 0 0 0 0 0 0 0 0 0 0 0 -0 -0 -0 -0 0 0 0 0 1 1 1 1 1 1 1 1 0 0 0 0 0 0
0 0 0 0 0 0 0 0 0 0 0 0 0 0 0 0 0 0 0 0 0 0 0 0 0 0 0 0 0 1 1 1 1 1 1 1 1 0 0 0 0 0 0
0 0 0 0 0 0 0 0 0 0 0 0 0 0 0 0 0 0 0 0 0 0 0 0 0 0 0 0 0 0 1 1 1 2 2 1 1 1 1 0 0 0 0
0 0 0 0 0 0 0 0 0 0 0 0 0 0 0 0 0 0 0 0 0 0 0 0 0 1 1 1 1 1 2 1 1 1 2 1 1 1 1 1 0 0 0
0 0 0 0 0 0 0 0 0 0 0 0 0 0 0 0 0 0 0 0 0 0 0 0 0 0 0 0 0 0 0 1 1 2 1 1 1 1 1 1 1 0 0
0 0 0 0 0 0 0 0 0 0 0 0 0 0 0 0 0 0 0 0 0 0 0 0 0 0 0 0 0 0 0 0 0 0 0 0 1 1 1 1 1 0 0
0 0 0 0 0 0 0 0 0 0 0 0 0 0 0 0 0 0 0 0 0 0 0 0 0 0 0 0 0 0 0 0 0 0 0 0 0 0 0 0 0 0 0
0 0 0 0 0 0 0 0 0 0 0 0 0 0 0 0 0 0 0 0 0 0 0 0 0 0 0 0 0 0 0 0 0 0 0 0 0 0 0 0 0 1 1
0 0 0 0 0 0 0 0 0 0 0 0 0 0 0 0 0 0 0 0 0 0 0 0 0 0 0 0 0 0 0 0 0 0 0 0 0 0 0 0 0 0 0
0 0 0 0 0 0 0 0 0 0 0 0 0 0 0 0 0 0 0 0 0 0 0 0 0 0 0 0 0 0 0 0 0 0 0 0 0 0 0 0 0 0 0
0 0 0 0 0 0 0 0 0 0 0 0 0 0 0 0 0 0 0 0 0 0 0 0 0 0 0 0 0 0 0 0 0 0 0 0 0 0 0 0 0 0 0
0 0 0 0 0 0 0 0 0 0 0 0 0 0 0 0 0 0 0 0 0 0 0 0 0 0 0 0 0 0 0 0 0 0 0 0 0 0 0 0 0 0 0
0 0 0 0 0 0 0 0 0 0 0 0 0 0 0 0 0 0 0 0 0 0 0 0 0 0 0 0 0 0 0 0 0 0 0 0 0 0 0 0 0 0 0
0 0 -0 -0 0 0 0 0 0 0 0 0 0 0 0 0 0 0 0 0 0 0 0 0 0 0 0 0 0 0 0 0 0 0 0 0 0 0 0 0 0 0 0
0 -0 -0 -0 -0 -0 -0 0 0 0 0 0 0 0 0 0 0 0 0 0 0 0 0 0 0 0 0 0 0 0 0 0 0 0 0 0 0 0 0 0 0 0 0
0 -0 -0 -0 -0 -0 -0 -0 0 0 0 0 0 0 0 0 0 0 0 0 0 0 0 0 0 0 0 0 0 0 0 0 0 0 0 0 0 0 0 0 0 0 0
0 -0 -0 -0 -0 0 0 0 0 0 0 0 0 0 0 0 0 0 0 0 0 0 0 0 0 0 0 0 0 0 0 0 0 0 0 0 0 0 0 0 0 0 0
-0 -0 -0 0 0 0 0 0 0 0 0 0 0 0 0 0 0 0 0 0 0 0 0 0 0 0 0 0 0 0 0 0 0 0 0 0 0 0 0 0 0 0 0
0 0 0 0 0 0 0 0 0 0 0 0 0 0 0 0 0 0 0 0 0 0 0 0 0 0 0 0 0 0 0 0 0 0 0 0 0 0 0 0 0 0 0
0 0 0 0 0 0 0 0 0 0 0 0 0 0 0 0 0 0 0 0 0 0 0 0 0 0 0 0 0 0 0 0 0 0 0 0 0 0 0 0 0 0 0
0 0 0 0 0 0 0 0 0 0 0 0 0 0 0 0 0 0 0 0 0 0 0 0 0 0 0 0 0 0 0 -0 -0 -0 0 0 0 0 0 0 0 0 0
0 0 0 0 0 0 0 0 0 0 0 0 0 0 0 0 0 0 0 0 0 0 0 0 0 0 0 0 0 0 -0 -0 -0 -0 -0 0 0 0 0 0 0 0 0
0 0 0 0 0 0 0 0 0 0 0 0 0 0 0 0 0 0 0 0 0 0 0 0 0 0 0 0 0 -0 -0 -0 -0 -0 -0 -0 0 -0 -0 0 0 0 0
0 0 0 0 0 0 0 0 0 0 0 0 0 0 0 0 0 0 0 0 0 0 0 0 0 0 0 -0 0 -0 -0 0 -0 -0 0 0 -0 -0 -0 0 0 0 0
Wind_Speed_500mb
15 18 22 22 23 23 20 19 16 22 21 24 31 30 31 31 30 11 7 11 22 17 26 22 27 18 14 33 25 27 21 32 31 30 30 31 31 31 31 33 34 36 39
17 20 21 25 29 30 31 28 28 31 28 24 22 24 25 28 43 50 40 13 16 25 33 35 33 34 37 39 37 35 33 37 39 38 36 35 34 32 33 33 31 32 34
21 25 29 33 36 34 31 29 32 36 37 36 35 31 31 35 35 33 32 39 39 31 27 29 33 43 60 50 46 46 46 42 42 43 41 38 35 34 35 34 32 33 33
28 30 34 36 39 41 42 38 38 38 41 46 44 45 52 54 56 57 54 52 49 47 52 49 56 61 66 57 53 51 48 45 47 49 47 44 41 40 42 42 40 39 37
38 39 41 43 45 46 49 49 46 45 46 48 49 51 51 54 54 54 56 57 56 57 54 48 47 42 41 44 50 53 55 54 54 56 56 55 49 47 46 45 44 42 39
42 42 44 46 47 49 51 53 54 52 52 51 56 54 50 53 54 53 55 50 45 44 42 40 34 33 34 35 40 45 45 47 51 55 58 57 55 53 50 47 46 45 43
42 43 44 46 46 47 49 51 52 51 47 42 46 37 40 40 32 33 31 26 23 21 20 22 24 22 22 24 26 32 40 49 54 53 52 53 54 54 52 51 50 44 41
38 41 42 43 44 45 44 42 41 40 36 33 26 31 24 23 19 14 11 14 18 21 21 20 22 25 26 26 28 30 35 40 42 44 47 45 49 51 50 48 55 64 70
35 36 37 37 37 37 37 36 34 33 31 25 26 12 15 11 31 14 25 26 19 22 28 31 29 25 24 24 26 29 34 38 44 49 54 57 57 59 67 70 69 70 66
31 30 29 29 30 30 29 31 33 33 34 29 25 16 14 26 16 27 27 34 29 25 29 28 25 26 31 31 34 33 35 39 43 46 49 50 52 51 52 52 52 53 56
26 26 25 23 25 25 26 28 30 31 34 34 32 28 20 16 12 16 28 27 26 22 25 24 22 23 24 29 30 32 36 39 41 43 42 41 45 52 55 59 60 61 61
20 21 22 20 21 23 24 25 24 25 26 26 25 24 21 22 20 21 26 29 27 16 17 17 13 13 22 25 31 37 42 39 38 39 39 38 40 43 45 46 47 56 58
21 17 18 18 19 22 21 20 21 23 25 25 24 21 18 17 18 20 19 20 17 15 14 22 20 20 29 35 42 43 30 29 31 32 33 39 43 40 40 41 45 46 51
22 15 13 15 18 20 20 20 21 22 25 25 24 23 20 22 22 19 17 21 23 23 18 11 16 27 37 32 31 25 23 24 25 27 30 32 33 41 51 55 51 47 46
33 26 20 18 20 20 23 25 25 25 25 24 25 27 26 26 26 23 18 18 18 21 25 17 23 23 24 24 25 24 27 28 29 32 32 33 34 34 34 38 40 40 39
38 33 28 27 28 30 31 32 29 29 25 23 23 26 26 26 23 24 22 18 17 16 18 22 21 23 28 26 28 31 34 37 37 37 37 37 36 35 34 33 35 36 37
37 40 38 33 30 30 35 37 36 35 35 35 35 34 35 32 25 23 21 18 18 19 22 25 28 29 30 32 30 31 30 30 30 40 39 36 33 31 31 31 31 31 35
29 29 28 26 24 23 27 31 33 37 38 39 39 38 39 39 37 31 22 22 19 20 22 29 30 29 29 29 33 34 30 31 34 36 36 31 27 25 25 30 28 27 33
31 30 25 22 24 26 22 27 27 30 32 36 38 39 39 39 35 32 27 22 20 20 21 24 29 27 26 27 32 30 32 33 32 33 32 28 28 28 28 25 26 26 28
33 38 35 27 24 25 21 22 27 28 32 34 35 39 41 40 40 39 33 28 26 28 27 29 31 31 30 32 34 37 38 32 36 30 25 25 28 28 27 31 28 28 31
29 36 39 30 28 24 24 22 27 30 32 34 33 37 39 38 39 40 41 40 42 35 36 36 36 37 37 39 40 41 42 40 34 28 28 27 23 24 18 19 25 29 34
23 31 34 31 27 26 25 26 30 31 31 36 37 34 36 38 37 38 39 42 45 46 42 38 40 42 42 42 42 46 42 42 42 31 35 33 25 22 15 17 29 36 40
22 26 30 30 31 32 33 32 32 33 34 34 35 37 38 40 45 49 49 47 45 45 40 35 36 40 40 41 45 47 45 46 44 42 39 37 23 18 21 24 40 45 42
17 22 26 25 30 30 30 33 35 36 38 39 41 43 45 47 51 56 56 46 40 33 33 30 28 35 37 46 45 47 50 48 37 38 32 26 23 23 22 24 32 19 15
20 21 21 23 27 28 26 30 38 40 40 38 41 44 48 51 53 53 48 43 38 31 32 35 40 49 56 56 55 56 42 36 42 38 28 27 20 30 21 20 20 24 18
25 22 17 19 24 25 28 34 37 36 36 37 36 39 44 49 52 54 54 43 41 41 45 48 43 41 41 38 44 35 30 37 38 35 22 32 24 24 20 14 23 26 15
Wind_Direction_500mb
320 320 326 327 320 331 330 325 333 339 315 283 292 288 290 278 244 278 292 6 319 273 271 260 250 243 232 259 260 249 245 262 260 254 251 247 243 244 247 244 241 240 244
327 323 323 316 318 320 313 311 309 301 297 299 293 298 292 299 267 269 273 309 328 306 302 283 268 264 286 267 259 250 256 257 257 252 245 241 242 239 235 239 241 242 245
314 318 318 317 315 315 315 308 298 296 290 284 281 276 279 280 280 285 286 295 293 286 278 276 277 281 275 260 255 256 255 256 253 250 247 239 237 238 240 239 237 236 237
319 317 315 313 312 312 312 311 307 300 292 289 285 279 277 271 266 270 268 268 267 262 265 262 257 254 248 251 255 257 259 258 255 250 245 239 237 241 245 246 244 240 236
317 316 315 313 311 309 308 307 305 301 296 290 285 281 275 274 274 272 272 272 271 269 267 274 273 268 271 261 255 255 256 261 256 251 246 245 245 246 244 245 245 244 245
312 313 312 309 307 307 306 303 301 298 296 295 289 286 283 278 279 278 278 280 283 283 278 274 276 273 268 261 253 250 247 247 246 246 246 247 248 249 245 245 244 246 245
313 312 313 314 315 315 316 316 314 313 309 303 304 294 290 291 292 285 281 277 280 285 287 282 278 277 272 266 257 250 243 239 241 241 240 243 246 250 249 248 246 243 254
320 322 323 324 325 327 330 332 333 334 331 330 321 311 307 287 278 312 299 318 315 323 315 304 294 287 279 268 263 257 254 252 248 243 241 243 245 245 246 248 256 262 270
330 329 332 335 339 344 350 356 3 7 2 358 351 327 323 312 319 285 317 323 323 324 317 314 304 286 276 268 260 257 257 255 254 253 252 249 247 248 255 262 262 261 256
345 346 349 354 1 10 17 21 21 21 17 6 13 355 308 293 305 306 304 307 306 307 298 299 297 290 289 284 280 279 274 270 268 266 266 262 258 257 258 256 256 252 250
357 360 3 10 17 29 30 30 25 21 22 26 17 5 3 346 325 314 317 325 319 303 300 302 297 296 296 295 299 294 291 287 284 280 274 267 262 262 263 259 256 251 250
4 9 16 24 30 33 33 32 21 17 15 22 30 25 24 356 340 326 313 323 326 325 328 318 319 312 302 305 307 309 304 298 292 284 277 263 261 264 263 257 257 252 254
3 11 24 33 30 24 22 18 11 6 6 8 12 11 6 1 7 0 349 335 329 332 332 326 312 321 318 322 326 319 304 301 301 296 289 273 261 261 257 263 262 257 253
3 10 27 28 22 19 18 13 5 1 360 357 355 356 1 351 353 355 348 333 323 316 321 318 311 318 318 329 325 327 329 321 316 307 300 294 286 275 269 266 266 267 261
44 45 43 36 35 35 31 28 24 21 18 20 23 22 19 13 10 5 356 346 336 323 323 327 331 322 334 330 326 330 325 323 321 318 313 303 288 283 282 272 263 263 263
53 54 59 61 61 56 45 33 28 24 22 21 20 13 9 7 6 10 14 10 8 355 332 330 332 331 334 332 323 323 321 320 317 317 313 305 297 285 277 272 266 257 254
56 58 62 63 61 48 35 33 39 43 45 44 40 34 29 21 8 0 356 351 346 345 329 323 323 320 324 323 315 319 323 322 319 318 319 308 300 289 273 271 265 255 247
45 44 44 42 31 28 31 35 42 42 40 37 32 28 25 23 21 14 1 356 349 338 329 323 319 323 322 323 323 322 317 317 314 312 311 307 306 300 284 270 269 251 250
41 34 30 30 30 32 31 23 20 20 20 17 12 8 6 5 5 6 5 357 349 345 340 335 335 334 333 334 332 330 323 320 319 314 314 306 291 290 284 280 263 256 260
29 28 26 29 29 26 23 20 14 10 5 1 1 358 355 353 351 347 342 337 327 328 325 330 331 331 332 332 334 329 324 325 322 319 316 314 306 282 276 268 265 261 266
20 21 22 26 26 27 26 11 2 356 355 358 357 354 354 350 345 341 336 327 318 315 317 316 319 321 325 327 330 330 323 322 324 319 318 317 309 291 276 256 258 263 270
9 11 12 18 17 18 10 6 6 4 0 351 347 348 347 344 339 337 335 333 327 316 301 302 309 316 317 321 322 322 321 321 319 318 317 313 304 292 281 276 277 283 284
359 1 7 22 32 31 30 23 10 2 354 353 352 348 348 344 341 338 334 331 328 321 312 302 298 307 309 314 317 318 314 310 309 311 308 312 294 294 300 297 297 295 293
8 5 10 26 29 27 25 23 13 11 8 1 357 354 351 345 338 334 333 331 331 326 318 312 307 306 308 309 310 311 308 306 305 310 302 293 300 296 301 305 309 297 290
17 14 23 32 28 24 20 12 11 11 7 3 359 354 347 343 341 341 341 337 336 329 323 307 302 305 306 305 299 306 302 296 301 309 303 284 300 316 320 302 298 300 298
30 29 36 31 22 15 9 4 2 3 1 3 360 356 352 355 350 348 345 338 332 326 324 317 314 309 308 308 310 313 302 303 306 312 307 315 307 315 319 309 321 314 293
Wind_Speed_850mb
15 18 22 22 23 23 20 19 16 22 21 24 31 30 31 31 30 11 7 11 22 17 26 22 27 18 14 33 25 27 21 32 31 30 30 31 31 31 31 33 34 36 39
17 20 21 25 29 30 31 28 28 31 28 24 22 24 25 28 43 50 40 13 16 25 33 35 33 34 37 39 37 35 33 37 39 38 36 35 34 32 33 33 31 32 34
21 25 29 33 36 34 31 29 32 36 37 36 35 31 31 35 35 33 32 39 39 31 27 29 33 43 60 50 46 46 46 42 42 43 41 38 35 34 35 34 32 33 33
28 30 34 36 39 41 42 38 38 38 41 46 44 45 52 54 56 57 54 52 49 47 52 49 56 61 66 57 53 51 48 45 47 49 47 44 41 40 42 42 40 39 37
38 39 41 43 45 46 49 49 46 45 46 48 49 51 51 54 54 54 56 57 56 57 54 48 47 42 41 44 50 53 55 54 54 56 56 55 49 47 46 45 44 42 39
42 42 44 46 47 49 51 53 54 52 52 51 56 54 50 53 54 53 55 50 45 44 42 40 34 33 34 35 40 45 45 47 51 55 58 57 55 53 50 47 46 45 43
42 43 44 46 46 47 49 51 52 51 47 42 46 37 40 40 32 33 31 26 23 21 20 22 24 22 22 24 26 32 40 49 54 53 52 53 54 54 52 51 50 44 41
38 41 42 43 44 45 44 42 41 40 36 33 26 31 24 23 19 14 11 14 18 21 21 20 22 25 26 26 28 30 35 40 42 44 47 45 49 51 50 48 55 64 70
35 36 37 37 37 37 37 36 34 33 31 25 26 12 15 11 31 14 25 26 19 22 28 31 29 25 24 24 26 29 34 38 44 49 54 57 57 59 67 70 69 70 66
31 30 29 29 30 30 29 31 33 33 34 29 25 16 14 26 16 27 27 34 29 25 29 28 25 26 31 31 34 33 35 39 43 46 49 50 52 51 52 52 52 53 56
26 26 25 23 25 25 26 28 30 31 34 34 32 28 20 16 12 16 28 27 26 22 25 24 22 23 24 29 30 32 36 39 41 43 42 41 45 52 55 59 60 61 61
20 21 22 20 21 23 24 25 24 25 26 26 25 24 21 22 20 21 26 29 27 16 17 17 13 13 22 25 31 37 42 39 38 39 39 38 40 43 45 46 47 56 58
21 17 18 18 19 22 21 20 21 23 25 25 24 21 18 17 18 20 19 20 17 15 14 22 20 20 29 35 42 43 30 29 31 32 33 39 43 40 40 41 45 46 51
22 15 13 15 18 20 20 20 21 22 25 25 24 23 20 22 22 19 17 21 23 23 18 11 16 27 37 32 31 25 23 24 25 27 30 32 33 41 51 55 51 47 46
33 26 20 18 20 20 23 25 25 25 25 24 25 27 26 26 26 23 18 18 18 21 25 17 23 23 24 24 25 24 27 28 29 32 32 33 34 34 34 38 40 40 39
38 33 28 27 28 30 31 32 29 29 25 23 23 26 26 26 23 24 22 18 17 16 18 22 21 23 28 26 28 31 34 37 37 37 37 37 36 35 34 33 35 36 37
37 40 38 33 30 30 35 37 36 35 35 35 35 34 35 32 25 23 21 18 18 19 22 25 28 29 30 32 30 31 30 30 30 40 39 36 33 31 31 31 31 31 35
29 29 28 26 24 23 27 31 33 37 38 39 39 38 39 39 37 31 22 22 19 20 22 29 30 29 29 29 33 34 30 31 34 36 36 31 27 25 25 30 28 27 33
31 30 25 22 24 26 22 27 27 30 32 36 38 39 39 39 35 32 27 22 20 20 21 24 29 27 26 27 32 30 32 33 32 33 32 28 28 28 28 25 26 26 28
33 38 35 27 24 25 21 22 27 28 32 34 35 39 41 40 40 39 33 28 26 28 27 29 31 31 30 32 34 37 38 32 36 30 25 25 28 28 27 31 28 28 31
29 36 39 30 28 24 24 22 27 30 32 34 33 37 39 38 39 40 41 40 42 35 36 36 36 37 37 39 40 41 42 40 34 28 28 27 23 24 18 19 25 29 34
23 31 34 31 27 26 25 26 30 31 31 36 37 34 36 38 37 38 39 42 45 46 42 38 40 42 42 42 42 46 42 42 42 31 35 33 25 22 15 17 29 36 40
22 26 30 30 31 32 33 32 32 33 34 34 35 37 38 40 45 49 49 47 45 45 40 35 36 40 40 41 45 47 45 46 44 42 39 37 23 18 21 24 40 45 42
17 22 26 25 30 30 30 33 35 36 38 39 41 43 45 47 51 56 56 46 40 33 33 30 28 35 37 46 45 47 50 48 37 38 32 26 23 23 22 24 32 19 15
20 21 21 23 27 28 26 30 38 40 40 38 41 44 48 51 53 53 48 43 38 31 32 35 40 49 56 56 55 56 42 36 42 38 28 27 20 30 21 20 20 24 18
25 22 17 19 24 25 28 34 37 36 36 37 36 39 44 49 52 54 54 43 41 41 45 48 43 41 41 38 44 35 30 37 38 35 22 32 24 24 20 14 23 26 15
Wind_Direction_850mb
320 320 326 327 320 331 330 325 333 339 315 283 292 288 290 278 244 278 292 6 319 273 271 260 250 243 232 259 260 249 245 262 260 254 251 247 243 244 247 244 241 240 244
327 323 323 316 318 320 313 311 309 301 297 299 293 298 292 299 267 269 273 309 328 306 302 283 268 264 286 267 259 250 256 257 257 252 245 241 242 239 235 239 241 242 245
314 318 318 317 315 315 315 308 298 296 290 284 281 276 279 280 280 285 286 295 293 286 278 276 277 281 275 260 255 256 255 256 253 250 247 239 237 238 240 239 237 236 237
319 317 315 313 312 312 312 311 307 300 292 289 285 279 277 271 266 270 268 268 267 262 265 262 257 254 248 251 255 257 259 258 255 250 245 239 237 241 245 246 244 240 236
317 316 315 313 311 309 308 307 305 301 296 290 285 281 275 274 274 272 272 272 271 269 267 274 273 268 271 261 255 255 256 261 256 251 246 245 245 246 244 245 245 244 245
312 313 312 309 307 307 306 303 301 298 296 295 289 286 283 278 279 278 278 280 283 283 278 274 276 273 268 261 253 250 247 247 246 246 246 247 248 249 245 245 244 246 245
313 312 313 314 315 315 316 316 314 313 309 303 304 294 290 291 292 285 281 277 280 285 287 282 278 277 272 266 257 250 243 239 241 241 240 243 246 250 249 248 246 243 254
320 322 323 324 325 327 330 332 333 334 331 330 321 311 307 287 278 312 299 318 315 323 315 304 294 287 279 268 263 257 254 252 248 243 241 243 245 245 246 248 256 262 270
330 329 332 335 339 344 350 356 3 7 2 358 351 327 323 312 319 285 317 323 323 324 317 314 304 286 276 268 260 257 257 255 254 253 252 249 247 248 255 262 262 261 256
345 346 349 354 1 10 17 21 21 21 17 6 13 355 308 293 305 306 304 307 306 307 298 299 297 290 289 284 280 279 274 270 268 266 266 262 258 257 258 256 256 252 250
357 360 3 10 17 29 30 30 25 21 22 26 17 5 3 346 325 314 317 325 319 303 300 302 297 296 296 295 299 294 291 287 284 280 274 267 262 262 263 259 256 251 250
4 9 16 24 30 33 33 32 21 17 15 22 30 25 24 356 340 326 313 323 326 325 328 318 319 312 302 305 307 309 304 298 292 284 277 263 261 264 263 257 257 252 254
3 11 24 33 30 24 22 18 11 6 6 8 12 11 6 1 7 0 349 335 329 332 332 326 312 321 318 322 326 319 304 301 301 296 289 273 261 261 257 263 262 257 253
3 10 27 28 22 19 18 13 5 1 360 357 355 356 1 351 353 355 348 333 323 316 321 318 311 318 318 329 325 327 329 321 316 307 300 294 286 275 269 266 266 267 261
44 45 43 36 35 35 31 28 24 21 18 20 23 22 19 13 10 5 356 346 336 323 323 327 331 322 334 330 326 330 325 323 321 318 313 303 288 283 282 272 263 263 263
53 54 59 61 61 56 45 33 28 24 22 21 20 13 9 7 6 10 14 10 8 355 332 330 332 331 334 332 323 323 321 320 317 317 313 305 297 285 277 272 266 257 254
56 58 62 63 61 48 35 33 39 43 45 44 40 34 29 21 8 0 356 351 346 345 329 323 323 320 324 323 315 319 323 322 319 318 319 308 300 289 273 271 265 255 247
45 44 44 42 31 28 31 35 42 42 40 37 32 28 25 23 21 14 1 356 349 338 329 323 319 323 322 323 323 322 317 317 314 312 311 307 306 300 284 270 269 251 250
41 34 30 30 30 32 31 23 20 20 20 17 12 8 6 5 5 6 5 357 349 345 340 335 335 334 333 334 332 330 323 320 319 314 314 306 291 290 284 280 263 256 260
29 28 26 29 29 26 23 20 14 10 5 1 1 358 355 353 351 347 342 337 327 328 325 330 331 331 332 332 334 329 324 325 322 319 316 314 306 282 276 268 265 261 266
20 21 22 26 26 27 26 11 2 356 355 358 357 354 354 350 345 341 336 327 318 315 317 316 319 321 325 327 330 330 323 322 324 319 318 317 309 291 276 256 258 263 270
9 11 12 18 17 18 10 6 6 4 0 351 347 348 347 344 339 337 335 333 327 316 301 302 309 316 317 321 322 322 321 321 319 318 317 313 304 292 281 276 277 283 284
359 1 7 22 32 31 30 23 10 2 354 353 352 348 348 344 341 338 334 331 328 321 312 302 298 307 309 314 317 318 314 310 309 311 308 312 294 294 300 297 297 295 293
8 5 10 26 29 27 25 23 13 11 8 1 357 354 351 345 338 334 333 331 331 326 318 312 307 306 308 309 310 311 308 306 305 310 302 293 300 296 301 305 309 297 290
17 14 23 32 28 24 20 12 11 11 7 3 359 354 347 343 341 341 341 337 336 329 323 307 302 305 306 305 299 306 302 296 301 309 303 284 300 316 320 302 298 300 298
30 29 36 31 22 15 9 4 2 3 1 3 360 356 352 355 350 348 345 338 332 326 324 317 314 309 308 308 310 313 302 303 306 312 307 315 307 315 319 309 321 314 293